Lompoc, CA

5:57 AM PST on December 07, 2016 (GMT -0800)
Lompoc

Weather History for KLPC - November, 2012

Change the Weather History Date:

Thursday, November 22, 2012

  Actual Average Record
Temperature  
Mean Temperature 56 °F -  
Max Temperature 69 °F 67 °F 84 °F (1954)
Min Temperature 44 °F 42 °F 30 °F (1983)
Degree Days  
Heating Degree Days 8    
Growing Degree Days 6 (Base 50)    
Moisture  
Dew Point 48 °F    
Average Humidity 80    
Maximum Humidity 100    
Minimum Humidity 46    
Precipitation  
Precipitation 0.00 in - - ()
Sea Level Pressure  
Sea Level Pressure 30.11 in    
Wind  
Wind Speed 2 mph (South)    
Max Wind Speed 15 mph    
Max Gust Speed 18 mph    
Visibility 8 miles    
Events      
Averages and records for this station are not official NWS values.
T = Trace of Precipitation, MM = Missing Value Source: NWS Daily Summary

Daily Weather History Graph

Daily Weather History Graph

Search for Another Location

Airport or City:

Trip Planner

Search our weather history database for the weather conditions in past years. The results will help you decide how hot, cold, wet, or windy it might be!

Date:

Astronomy

Nov. 22, 2012 Rise Set
Actual Time 6:42 AM PST 4:53 PM PST
Civil Twilight 6:15 AM PST 5:20 PM PST
Nautical Twilight 5:44 AM PST 5:51 PM PST
Astronomical Twilight 5:14 AM PST 6:21 PM PST
Moon 1:30 PM PST (11/22) 1:20 AM PST (11/22)
Length of Visible Light 11h 04m
Length of Day
10h 10m
Waxing Gibbous, 72% of the Moon is Illuminated
Nov 22
Waxing Gibbous
Nov 28
Full
Dec 6
Last Quarter
Dec 13
New
Dec 19
First Quarter

Hourly Weather History & Observations

Time (PST) Temp. Windchill Dew Point Humidity Pressure Visibility Wind Dir Wind Speed Gust Speed Precip Events Conditions
12:15 AM 53.6 °F - 50.0 °F 88% 30.10 in 9.0 mi Calm Calm - N/A   Clear
12:35 AM 53.6 °F - 50.0 °F 88% 30.09 in 9.0 mi Calm Calm - N/A   Clear
12:55 AM 51.8 °F - 48.2 °F 88% 30.09 in 8.0 mi Calm Calm - N/A   Clear
1:15 AM 51.8 °F - 48.2 °F 88% 30.09 in 10.0 mi Calm Calm - N/A   Clear
1:35 AM 51.8 °F - 48.2 °F 88% 30.09 in 7.0 mi Calm Calm - N/A   Scattered Clouds
1:55 AM 50.0 °F - 46.4 °F 87% 30.08 in 8.0 mi Calm Calm - N/A   Mostly Cloudy
2:15 AM 50.0 °F - 46.4 °F 87% 30.08 in 10.0 mi Calm Calm - N/A   Partly Cloudy
2:35 AM 48.2 °F - 46.4 °F 93% 30.08 in 2.5 mi Calm Calm - N/A   Mostly Cloudy
2:55 AM 50.0 °F - 48.2 °F 94% 30.08 in 0.2 mi Calm Calm - N/A   Overcast
3:15 AM 48.2 °F - 46.4 °F 93% 30.08 in 0.2 mi Calm Calm - N/A   Overcast
3:35 AM 48.2 °F - 46.4 °F 93% 30.07 in 0.5 mi Calm Calm - N/A   Overcast
3:55 AM 48.2 °F - 46.4 °F 93% 30.07 in 0.5 mi Calm Calm - N/A   Overcast
4:15 AM 46.4 °F - 44.6 °F 93% 30.07 in 0.5 mi Calm Calm - N/A   Overcast
4:35 AM 46.4 °F - 44.6 °F 93% 30.07 in 1.0 mi Calm Calm - N/A   Overcast
4:55 AM 46.4 °F - 44.6 °F 93% 30.07 in 2.0 mi Calm Calm - N/A   Mostly Cloudy
5:15 AM 44.6 °F - 42.8 °F 93% 30.07 in 3.0 mi Calm Calm - N/A   Mostly Cloudy
5:35 AM 44.6 °F - 42.8 °F 93% 30.08 in 10.0 mi Calm Calm - N/A   Scattered Clouds
5:55 AM 44.6 °F - 42.8 °F 93% 30.08 in 10.0 mi Calm Calm - N/A   Partly Cloudy
6:15 AM 44.6 °F - 42.8 °F 93% 30.09 in 10.0 mi Calm Calm - N/A   Clear
6:35 AM 44.6 °F - 42.8 °F 93% 30.10 in 10.0 mi Calm Calm - N/A   Mostly Cloudy
6:55 AM 44.6 °F 43.1 °F 42.8 °F 93% 30.11 in 5.0 mi East 3.5 mph - N/A   Mostly Cloudy
7:15 AM 44.6 °F - 42.8 °F 93% 30.12 in 10.0 mi Calm Calm - N/A   Partly Cloudy
7:35 AM 46.4 °F - 44.6 °F 93% 30.13 in 0.2 mi Calm Calm - N/A   Overcast
7:55 AM 46.4 °F - 46.4 °F 100% 30.13 in 0.5 mi Calm Calm - N/A   Overcast
8:15 AM 48.2 °F - 46.4 °F 93% 30.13 in 0.5 mi Calm Calm - N/A   Overcast
8:35 AM 51.8 °F - 48.2 °F 88% 30.14 in 2.5 mi Calm Calm - N/A   Overcast
8:55 AM 51.8 °F - 50.0 °F 94% 30.14 in 10.0 mi Calm Calm - N/A   Partly Cloudy
9:15 AM 53.6 °F - 51.8 °F 94% 30.14 in 10.0 mi Calm Calm - N/A   Clear
9:35 AM 55.4 °F - 51.8 °F 88% 30.14 in 10.0 mi Calm Calm - N/A   Clear
9:55 AM 57.2 °F - 51.8 °F 82% 30.15 in 10.0 mi Calm Calm - N/A   Clear
10:15 AM 60.8 °F - 50.0 °F 68% 30.14 in 10.0 mi Calm Calm - N/A   Clear
10:35 AM 62.6 °F - 48.2 °F 59% 30.14 in 10.0 mi SE 3.5 mph - N/A   Clear
10:55 AM 64.4 °F - 50.0 °F 59% 30.14 in 10.0 mi Calm Calm - N/A   Clear
11:15 AM 64.4 °F - 48.2 °F 56% 30.13 in 10.0 mi Calm Calm - N/A   Clear
11:35 AM 66.2 °F - 48.2 °F 52% 30.12 in 10.0 mi Calm Calm - N/A   Clear
11:55 AM 68.0 °F - 48.2 °F 49% 30.11 in 10.0 mi WSW 5.8 mph - N/A   Clear
12:15 PM 68.0 °F - 50.0 °F 52% 30.10 in 10.0 mi WSW 5.8 mph - N/A   Clear
12:35 PM 69.8 °F - 50.0 °F 49% 30.09 in 10.0 mi West 8.1 mph - N/A   Clear
12:55 PM 69.8 °F - 50.0 °F 49% 30.09 in 10.0 mi West 11.5 mph - N/A   Clear
1:15 PM 69.8 °F - 50.0 °F 49% 30.08 in 10.0 mi West 13.8 mph - N/A   Clear
1:35 PM 69.8 °F - 48.2 °F 46% 30.08 in 10.0 mi WSW 12.7 mph - N/A   Clear
1:55 PM 69.8 °F - 48.2 °F 46% 30.08 in 10.0 mi WSW 11.5 mph - N/A   Clear
2:15 PM 69.8 °F - 48.2 °F 46% 30.08 in 10.0 mi West 15.0 mph - N/A   Clear
2:35 PM 68.0 °F - 48.2 °F 49% 30.08 in 10.0 mi West 13.8 mph - N/A   Clear
2:55 PM 66.2 °F - 48.2 °F 52% 30.08 in 10.0 mi West 12.7 mph - N/A   Clear
3:15 PM 66.2 °F - 51.8 °F 60% 30.08 in 10.0 mi West 12.7 mph - N/A   Clear
3:35 PM 62.6 °F - 53.6 °F 72% 30.09 in 10.0 mi West 15.0 mph 18.4 mph N/A   Clear
3:55 PM 62.6 °F - 53.6 °F 72% 30.09 in 10.0 mi West 9.2 mph - N/A   Clear
4:15 PM 62.6 °F - 53.6 °F 72% 30.10 in 10.0 mi WSW 9.2 mph - N/A   Clear
4:35 PM 60.8 °F - 51.8 °F 72% 30.10 in 10.0 mi WSW 8.1 mph - N/A   Clear
4:55 PM 59.0 °F - 51.8 °F 77% 30.10 in 10.0 mi WSW 6.9 mph - N/A   Clear
5:15 PM 59.0 °F - 51.8 °F 77% 30.11 in 10.0 mi West 5.8 mph - N/A   Clear
5:35 PM 57.2 °F - 51.8 °F 82% 30.11 in 10.0 mi WSW 5.8 mph - N/A   Clear
5:55 PM 57.2 °F - 51.8 °F 82% 30.11 in 10.0 mi West 4.6 mph - N/A   Clear
6:15 PM 55.4 °F - 50.0 °F 82% 30.12 in 10.0 mi Calm Calm - N/A   Clear
6:35 PM 55.4 °F - 50.0 °F 82% 30.12 in 10.0 mi Calm Calm - N/A   Clear
6:55 PM 53.6 °F - 48.2 °F 82% 30.12 in 10.0 mi East 3.5 mph - N/A   Clear
7:15 PM 53.6 °F - 48.2 °F 82% 30.12 in 10.0 mi East 5.8 mph - N/A   Clear
7:35 PM 51.8 °F - 48.2 °F 88% 30.12 in 10.0 mi East 5.8 mph - N/A   Clear
7:55 PM 51.8 °F - 48.2 °F 88% 30.12 in 10.0 mi East 4.6 mph - N/A   Clear
8:15 PM 51.8 °F - 48.2 °F 88% 30.12 in 10.0 mi East 4.6 mph - N/A   Clear
8:35 PM 51.8 °F - 48.2 °F 88% 30.13 in 10.0 mi East 6.9 mph - N/A   Clear
8:55 PM 51.8 °F - 48.2 °F 88% 30.13 in 10.0 mi East 5.8 mph - N/A   Clear
9:15 PM 50.0 °F - 46.4 °F 87% 30.13 in 10.0 mi East 6.9 mph - N/A   Clear
9:35 PM 48.2 °F - 46.4 °F 93% 30.13 in 10.0 mi East 5.8 mph - N/A   Clear
9:55 PM 50.0 °F - 46.4 °F 87% 30.13 in 10.0 mi East 5.8 mph - N/A   Clear
10:15 PM 48.2 °F - 46.4 °F 93% 30.13 in 10.0 mi East 4.6 mph - N/A   Clear
10:35 PM 48.2 °F - 46.4 °F 93% 30.13 in 10.0 mi East 5.8 mph - N/A   Clear
10:55 PM 48.2 °F - 46.4 °F 93% 30.13 in 10.0 mi ESE 3.5 mph - N/A   Clear
11:15 PM 48.2 °F - 44.6 °F 87% 30.13 in 10.0 mi East 5.8 mph - N/A   Clear
11:35 PM 48.2 °F - 44.6 °F 87% 30.13 in 10.0 mi East 4.6 mph - N/A   Clear
11:55 PM 48.2 °F - 44.6 °F 87% 30.13 in 10.0 mi East 4.6 mph - N/A   Clear